Wind_Speed
21 21 22 21 20 20 19 17 17 16 13 11 10 9 8 8 9 10 9 9 9 10 10 10 10 10 10 10 11 10 10 10 10 10 10 10 9 8 8 8 8 8
22 23 24 22 21 20 19 18 18 16 13 11 10 9 8 9 11 11 11 10 11 11 10 10 10 10 10 10 10 10 10 10 10 10 10 9 8 8 8 9 9 8
24 26 25 23 22 20 18 17 17 16 12 10 10 9 9 11 12 12 11 11 12 11 11 11 10 10 10 10 10 10 10 10 9 9 8 8 7 7 8 8 8 8
25 26 25 22 23 22 19 18 18 16 13 11 11 11 11 13 14 13 13 12 12 12 11 11 10 10 11 10 10 10 10 9 9 8 8 7 7 7 8 8 8 7
25 25 24 22 24 23 21 20 19 17 14 12 12 13 13 15 15 14 13 13 12 12 12 11 11 11 11 10 10 10 9 9 8 8 7 7 7 7 7 7 7 6
25 24 23 22 24 24 22 21 19 17 14 13 13 14 15 16 15 15 14 14 13 13 12 12 12 11 10 10 10 9 9 8 8 8 8 8 7 7 7 6 6 5
26 23 23 24 24 24 23 21 19 16 14 14 14 14 16 16 15 15 15 14 14 13 13 12 12 11 11 10 10 9 9 9 8 8 8 8 7 7 7 6 6 6
25 22 24 27 25 23 24 22 19 16 15 14 14 15 16 15 15 15 14 14 14 13 13 12 12 11 11 10 10 10 9 9 8 8 8 8 8 7 7 6 6 6
26 22 23 26 25 24 24 21 18 16 15 14 15 15 15 15 15 15 14 14 14 13 13 12 12 11 10 10 10 10 10 9 8 8 8 8 7 7 7 6 6 5
24 24 23 24 26 26 23 21 19 16 15 14 15 15 15 15 14 14 15 14 14 14 13 13 12 11 11 11 11 11 10 9 9 8 8 7 7 7 7 6 5 4
22 23 25 26 28 26 23 21 19 16 15 15 15 16 15 15 15 15 15 14 14 14 14 13 12 12 12 12 12 11 10 10 9 9 8 7 7 7 6 5 5 4
23 23 27 29 28 25 22 21 19 16 15 15 15 16 15 15 15 14 14 14 14 14 14 13 12 12 12 12 12 12 11 11 10 9 9 8 7 7 6 5 4 4
23 24 30 31 28 25 23 21 19 16 15 15 16 15 15 15 14 13 13 13 13 13 13 12 12 12 12 12 12 12 11 11 11 10 9 8 7 7 6 5 5 4
24 26 32 31 27 25 24 21 19 16 15 16 16 15 15 15 14 13 12 12 12 12 12 12 12 12 12 12 12 12 12 11 11 11 10 9 8 7 6 5 5 4
25 27 29 27 25 24 23 21 19 16 16 17 16 16 15 14 14 13 12 11 11 10 10 10 10 10 12 13 13 12 12 11 11 10 10 9 8 8 7 6 6 5
27 27 27 25 24 24 23 22 20 17 17 18 17 17 16 15 16 15 12 12 13 12 11 11 9 10 13 15 14 13 12 11 11 10 9 9 9 8 8 7 6 6
27 28 26 25 25 24 23 23 21 19 18 18 18 18 17 18 19 19 16 16 16 15 16 16 13 13 15 17 16 15 13 10 10 10 9 8 8 8 8 7 7 7
26 26 26 25 25 24 24 26 24 21 19 19 20 20 19 20 21 21 19 18 15 15 16 15 13 13 16 18 17 16 14 10 9 9 8 8 8 8 8 7 7 6
26 25 26 27 26 25 27 28 26 21 19 20 20 19 18 18 18 18 18 16 15 15 15 14 13 14 16 19 20 18 15 10 8 8 8 7 8 7 6 6 7 6
27 26 27 27 26 26 29 27 23 21 20 20 20 19 18 17 16 16 16 15 15 15 15 14 14 14 16 19 21 20 17 11 5 6 8 7 7 6 5 5 6 6
26 26 26 26 25 27 28 24 21 21 21 20 19 19 18 16 15 15 15 15 15 15 15 14 14 15 16 19 21 20 20 13 4 4 8 7 6 6 6 6 6 5
25 26 26 25 26 27 26 23 21 21 20 20 19 18 16 15 15 16 16 16 16 15 15 14 14 15 17 20 19 19 20 15 5 4 7 6 6 7 7 7 7 6
25 26 26 25 26 26 25 23 22 21 20 20 19 17 17 16 16 16 16 16 16 16 15 13 13 17 20 20 19 18 18 14 7 6 7 7 8 8 8 8 8 7
24 24 25 25 26 26 24 22 22 21 20 19 18 17 17 16 16 16 15 16 16 16 15 13 13 18 21 20 19 18 17 13 9 8 8 8 8 9 8 8 9 10
23 23 23 24 24 24 24 23 23 21 20 19 17 16 16 15 15 14 14 15 15 14 14 13 13 19 22 20 20 20 18 14 10 8 9 9 8 9 9 8 8 11
23 24 24 24 24 24 24 23 22 21 21 20 17 15 15 15 14 13 13 13 13 13 14 12 13 19 23 21 20 20 19 16 11 8 8 9 9 9 10 9 8 9
Wind_Direction
172 179 182 178 176 175 172 171 171 170 172 171 166 166 172 170 166 165 158 147 133 126 123 118 115 114 110 107 105 104 102 97 94 90 89 89 87 86 85 81 79 77
177 183 182 177 173 172 172 172 171 169 169 169 163 162 168 166 164 164 156 146 136 130 127 123 119 118 115 111 109 107 105 101 97 96 94 95 96 91 86 82 78 75
184 183 179 175 171 169 169 170 170 169 166 163 166 168 169 167 164 162 155 145 139 134 130 127 124 121 118 116 114 111 110 107 104 105 102 100 100 95 88 84 79 77
184 179 175 173 170 168 166 166 163 163 162 158 160 164 166 167 165 159 153 146 140 138 134 131 127 125 124 120 118 116 113 112 112 113 110 104 99 95 91 87 85 82
178 176 177 174 170 168 165 165 161 155 157 156 154 159 164 164 163 158 153 149 145 142 138 135 132 130 130 127 123 121 119 119 121 120 116 108 101 97 94 92 93 88
176 176 176 170 171 174 168 165 163 155 155 156 156 162 164 162 161 159 155 152 149 146 143 140 138 136 135 132 129 127 126 127 128 125 119 112 106 102 101 101 97 89
177 177 175 170 173 177 171 164 161 156 156 159 160 163 163 162 162 159 157 155 152 150 147 144 143 142 140 138 136 134 134 132 131 128 121 116 113 108 104 103 97 90
175 173 177 178 175 171 169 164 158 157 159 160 162 165 165 165 162 159 158 155 153 152 150 148 147 145 144 145 144 141 138 136 134 131 124 120 118 114 108 104 100 94
171 168 173 178 175 168 166 161 156 159 162 162 164 165 165 165 162 160 159 157 156 154 151 151 149 148 149 150 149 145 142 141 138 133 128 125 123 118 115 113 107 101
169 169 168 170 173 169 163 158 157 160 164 165 165 164 164 164 160 161 161 159 158 157 155 155 152 152 154 153 151 150 147 146 143 138 133 130 126 122 123 122 116 110
167 171 173 171 171 166 159 157 158 161 165 165 164 164 163 160 161 164 164 162 162 160 159 158 156 155 156 154 154 153 152 150 147 143 138 131 127 127 126 127 124 118
166 171 177 174 168 161 156 157 159 163 167 164 163 164 160 159 164 166 165 165 165 164 162 160 158 157 157 157 156 155 155 153 149 146 141 136 134 134 130 129 128 124
165 170 176 174 167 160 156 158 163 166 167 164 163 162 159 161 164 164 166 168 166 165 164 161 160 159 159 159 159 159 158 156 154 150 147 145 144 142 138 135 132 130
165 169 174 172 167 162 159 161 165 167 166 162 160 161 161 161 161 160 162 166 165 166 165 164 165 163 162 162 162 162 161 159 158 156 155 154 154 151 146 146 148 143
163 164 167 166 163 161 161 164 165 166 165 160 159 159 157 156 156 155 160 164 164 164 165 166 170 169 166 166 166 165 164 164 163 162 161 160 162 164 164 167 164 152
159 159 161 162 160 159 163 168 168 165 162 159 157 154 152 153 152 152 160 164 160 163 167 168 179 187 178 173 172 169 166 167 168 168 167 168 171 172 177 185 184 174
156 159 162 161 159 159 163 167 168 167 163 158 156 155 156 160 160 160 168 170 166 172 173 171 183 198 190 181 175 169 166 169 173 173 174 176 180 183 185 193 194 186
157 162 162 161 161 159 160 162 162 163 161 156 156 157 160 165 168 169 174 176 174 175 175 175 187 199 196 188 181 173 168 168 172 177 179 182 187 195 195 191 189 190
163 164 162 164 165 163 164 166 163 159 158 157 157 157 158 163 168 170 173 176 175 176 179 182 190 202 202 194 186 181 174 168 170 177 183 192 196 199 199 185 183 196
166 163 161 162 164 166 169 168 163 159 161 161 161 164 165 165 168 170 172 175 177 182 186 185 190 203 206 196 190 187 180 174 175 185 191 200 200 194 196 189 191 207
163 159 158 158 161 166 168 164 161 161 163 162 164 169 173 175 177 176 178 182 185 188 188 186 193 203 201 193 190 189 185 184 199 215 200 198 195 192 198 201 201 208
160 156 156 156 159 164 164 161 161 162 162 162 162 166 173 180 183 182 184 188 191 192 188 185 192 199 196 189 186 186 188 191 212 224 199 197 202 202 203 203 201 201
159 156 156 157 159 162 163 163 161 162 164 164 163 167 175 180 183 185 188 190 191 192 189 184 187 194 193 188 185 185 187 193 211 215 204 207 207 204 205 201 198 201
160 158 157 159 161 162 163 163 162 162 164 166 167 172 177 180 183 185 187 188 189 190 189 184 185 190 190 188 189 189 189 194 208 209 205 208 203 201 205 201 202 210
161 160 160 161 163 163 161 161 161 161 163 167 171 173 174 177 181 183 181 182 185 187 184 180 182 187 189 191 194 195 194 196 208 213 206 204 201 200 204 202 204 215
163 164 162 161 162 163 161 159 158 160 163 165 166 169 170 170 173 176 177 177 180 183 180 176 179 185 190 195 198 200 200 198 209 224 211 200 201 202 206 205 199 204
Height
809 813 817 819 820 821 823 825 827 828 830 831 832 834 834 835 837 838 839 839 839 840 840 841 841 842 842 843 844 845 846 847 847 848 848 848 849 850 850 851 850 851
808 813 817 818 819 820 822 824 826 827 829 830 831 833 834 835 836 837 838 839 839 840 840 841 842 842 843 844 845 846 847 847 848 849 849 850 851 851 851 851 851 852
808 812 815 816 817 819 821 822 824 826 828 829 831 832 833 835 836 837 838 839 839 840 841 842 843 843 844 844 846 847 848 848 849 850 851 852 852 852 852 852 852 853
807 810 812 814 815 817 819 821 823 825 827 829 830 831 833 834 836 837 838 839 839 840 841 842 843 843 844 845 846 847 848 849 850 851 852 853 853 853 853 853 854 854
805 807 810 812 813 815 818 819 821 823 826 828 829 831 832 834 835 836 837 838 839 840 841 842 843 844 845 846 847 848 849 850 851 852 853 853 854 854 854 854 855 855
803 806 809 810 811 813 816 818 820 822 825 827 828 830 832 833 834 836 837 838 839 840 841 842 843 844 845 846 847 848 850 851 852 852 853 854 854 855 855 856 856 856
802 805 807 808 809 812 814 817 820 822 824 826 828 830 831 832 834 835 836 838 839 840 841 842 843 844 846 847 848 849 850 851 852 853 854 854 855 855 856 856 857 857
801 803 804 806 808 811 814 816 819 822 824 826 827 829 830 832 833 835 836 837 839 840 841 842 844 845 846 847 848 849 850 851 852 853 854 855 855 856 856 857 857 857
799 801 802 805 808 810 813 815 818 821 823 825 827 829 830 832 833 835 836 837 839 840 841 843 844 845 846 847 848 850 850 852 853 853 854 855 856 856 857 857 858 858
796 798 801 804 806 809 812 815 818 820 823 825 826 828 830 831 833 834 836 837 838 840 841 842 843 844 846 847 848 849 851 852 853 854 855 855 856 857 857 858 858 859
795 797 800 803 806 809 812 815 818 820 822 824 826 828 829 831 833 834 836 837 838 839 840 842 843 844 845 847 848 849 850 852 853 854 855 855 856 857 858 858 859 859
794 796 799 802 805 808 811 814 817 820 822 823 825 827 829 830 832 834 835 837 838 839 840 841 843 844 845 846 848 849 850 851 852 853 854 855 856 857 858 859 859 860
792 795 798 801 805 808 811 814 817 819 821 823 825 827 829 830 832 834 835 837 838 839 840 842 843 844 846 847 848 849 850 851 852 853 854 855 856 857 858 859 859 860
791 794 797 800 804 807 810 813 815 818 820 822 824 826 828 830 831 833 835 837 839 840 841 843 844 845 846 847 848 849 850 851 852 852 853 855 856 857 858 859 859 860
789 792 796 800 804 806 809 812 814 817 819 820 823 825 826 829 830 832 835 837 839 841 842 844 845 845 845 846 848 849 850 851 851 852 853 854 855 856 857 858 859 859
788 791 795 800 802 805 808 811 813 816 818 819 821 823 825 827 829 831 834 836 837 839 841 843 846 847 846 846 847 848 849 851 851 852 853 854 855 856 857 858 858 858
786 790 794 798 801 804 807 809 812 815 817 818 819 822 824 825 827 829 831 834 836 837 838 840 843 845 845 845 847 848 849 850 851 852 852 853 854 855 856 857 858 858
785 789 792 796 799 803 805 807 810 813 816 817 818 820 822 824 826 828 830 833 835 836 838 840 841 842 844 845 846 847 848 849 850 851 852 853 854 855 855 856 857 858
784 787 790 794 798 800 802 805 808 811 813 815 817 819 821 824 826 828 829 832 833 835 837 839 840 841 843 844 845 847 848 848 849 851 851 852 853 854 855 855 856 857
782 785 788 792 795 797 800 803 806 809 811 813 815 817 820 823 826 827 829 831 833 835 836 837 838 839 841 843 845 846 847 848 849 850 851 852 853 853 854 855 855 856
780 782 786 789 792 795 798 802 804 806 809 811 813 816 819 822 825 827 828 830 832 834 835 836 836 838 840 842 843 845 847 848 848 850 851 852 852 853 854 854 854 855
777 780 784 787 790 793 796 799 802 804 807 809 811 816 819 822 824 826 827 830 831 832 833 834 835 837 839 841 842 844 846 847 848 849 850 851 852 852 853 853 854 854
775 778 781 785 788 791 795 797 800 802 805 808 811 814 818 820 822 824 826 828 830 831 832 833 834 836 838 839 841 843 845 847 848 849 849 850 851 852 852 852 853 853
774 776 780 783 786 790 793 796 799 802 805 808 811 814 817 819 821 823 825 827 828 830 831 832 833 835 837 839 841 842 844 846 847 848 849 849 850 851 851 852 852 852
772 776 779 782 786 789 792 795 798 801 804 808 811 813 816 819 821 823 824 826 827 829 830 831 832 834 836 838 840 842 843 845 846 847 847 848 849 850 850 851 851 851
772 775 778 781 785 788 791 795 798 801 804 807 810 813 815 818 820 823 824 826 827 828 830 831 831 832 835 837 839 840 842 843 845 845 846 847 848 848 849 850 850 850